Rechercher aéroport 
image banner adimage banner adimage banner ad
image banner ad

IA49 - Jirak Airport

Situé à Fort Atkinson, United States

ICAO - IA49, IATA -

Données fournies par Airmate  

Information générale

Coordonnées: N40°43'12" W94°13'20"
Élévation : 1218 feet MSL.
 
Voir autres Aéroports à Iowa

Données opérationnelles

Special qualification required
Heure actuelle UTC:
Heure actuelle locale:
Météo à : KLWD - Lamoni Muni ( 29 km )
METAR: KLWD 210153Z AUTO 32014G22KT 10SM CLR 17/13 A2992 RMK AO2 SLP126 T01670128
Voir NOTAMs / SUP AIP / TFR affectant cet aéroport [VIEW]
Fréquences de communication: [VIEW]

Pistes:

Coordonnées de l'aéroport

Adresse: Fort Atkinson United States

Vue satellite de IA49